Total_Precipitation_Accumulation
0.78 0.83 0.95 1.11 1.22 1.26 1.27 1.31 1.35 1.37 1.39 1.38 1.38 1.44 1.48 1.49 1.48 1.53 1.58 1.58 1.55 1.50 1.46 1.45 1.42 1.37 1.38 1.36 1.38 1.43 1.48 1.56 1.56 1.24 1.04 1.01 1.08 1.08 1.11 1.03 0.98 0.95 0.93
0.71 0.75 0.84 0.90 1.03 1.15 1.21 1.18 1.15 1.19 1.22 1.20 1.17 1.21 1.26 1.28 1.28 1.30 1.35 1.38 1.40 1.37 1.37 1.40 1.39 1.41 1.48 1.49 1.50 1.48 1.46 1.44 1.44 1.32 1.09 0.99 0.96 0.93 0.92 0.93 0.93 0.91 0.85
0.69 0.70 0.77 0.81 0.86 0.94 1.07 1.12 1.11 1.11 1.16 1.17 1.12 1.12 1.12 1.12 1.16 1.17 1.16 1.19 1.23 1.25 1.27 1.32 1.34 1.39 1.48 1.51 1.50 1.48 1.42 1.37 1.35 1.33 1.18 1.03 0.99 0.93 0.91 0.91 0.89 0.87 0.82
0.64 0.69 0.69 0.76 0.79 0.81 0.88 0.97 1.02 1.03 1.07 1.06 1.07 1.07 1.09 1.08 1.10 1.14 1.16 1.17 1.20 1.22 1.23 1.25 1.26 1.26 1.27 1.28 1.29 1.29 1.29 1.31 1.32 1.33 1.25 1.12 1.04 1.00 1.00 1.03 1.00 0.89 0.84
0.58 0.66 0.68 0.71 0.74 0.78 0.82 0.88 0.95 0.97 1.01 1.02 1.02 1.03 1.02 1.05 1.12 1.17 1.19 1.21 1.23 1.27 1.29 1.26 1.19 1.17 1.12 1.10 1.08 1.08 1.11 1.22 1.31 1.36 1.29 1.16 1.04 1.01 0.99 0.94 0.97 0.95 0.90
0.56 0.59 0.64 0.69 0.70 0.74 0.79 0.83 0.86 0.93 0.99 1.03 1.09 1.12 1.12 1.15 1.33 1.38 1.33 1.28 1.24 1.20 1.17 1.11 1.07 1.08 1.05 1.08 1.09 1.08 1.13 1.26 1.38 1.36 1.24 1.07 0.89 0.83 0.89 0.98 1.08 1.14 1.06
0.58 0.58 0.60 0.66 0.71 0.73 0.78 0.85 0.93 0.98 1.08 1.15 1.19 1.29 1.31 1.31 1.37 1.26 1.25 1.19 1.20 1.16 1.06 0.98 0.92 0.87 0.89 0.83 0.93 1.01 1.03 1.11 1.16 1.14 1.07 0.91 0.84 0.82 1.01 1.20 1.18 1.12 0.94
0.57 0.63 0.66 0.67 0.75 0.82 0.85 0.91 1.00 1.07 1.16 1.24 1.23 1.25 1.28 1.31 1.32 1.19 1.15 1.01 0.96 0.97 0.93 0.88 0.82 0.79 0.79 0.81 0.87 0.95 0.87 0.83 0.84 0.80 0.81 0.85 0.86 0.88 1.03 1.24 1.23 1.18 0.99
0.55 0.62 0.68 0.70 0.80 0.88 0.89 0.93 1.00 1.05 1.11 1.14 1.15 1.12 1.05 1.05 1.10 1.02 0.99 0.90 0.88 0.84 0.81 0.81 0.83 0.78 0.87 0.99 0.97 0.95 0.82 0.72 0.77 0.84 0.89 0.89 0.94 0.94 0.99 1.27 1.41 1.43 1.24
0.66 0.69 0.76 0.84 0.94 0.97 0.94 0.94 0.93 0.93 0.93 0.90 0.87 0.85 0.81 0.78 0.84 0.83 0.82 0.74 0.76 0.75 0.76 0.79 0.88 0.83 0.92 1.03 0.92 0.89 0.81 0.70 0.68 0.69 0.69 0.69 0.67 0.71 0.85 1.03 1.44 1.73 1.45
0.79 0.80 0.82 0.90 0.95 0.96 0.92 0.87 0.84 0.80 0.79 0.76 0.72 0.70 0.67 0.67 0.70 0.70 0.72 0.67 0.66 0.70 0.71 0.68 0.70 0.89 0.96 0.95 0.85 0.73 0.77 0.81 0.70 0.61 0.60 0.59 0.58 0.60 0.64 0.71 1.00 1.61 1.83
0.77 0.78 0.78 0.80 0.83 0.87 0.88 0.83 0.79 0.77 0.76 0.75 0.74 0.75 0.72 0.71 0.70 0.69 0.73 0.75 0.77 0.71 0.65 0.58 0.64 0.84 0.83 0.77 0.70 0.74 0.86 0.82 0.68 0.66 0.65 0.63 0.59 0.56 0.56 0.61 0.71 0.92 1.23
0.69 0.72 0.71 0.69 0.69 0.72 0.76 0.77 0.78 0.77 0.75 0.75 0.75 0.77 0.76 0.73 0.75 0.80 0.78 0.84 0.85 0.73 0.70 0.78 0.80 0.76 0.68 0.64 0.67 0.73 0.72 0.67 0.73 0.82 0.76 0.65 0.59 0.57 0.60 0.64 0.68 0.76 0.85
0.56 0.62 0.65 0.65 0.64 0.64 0.63 0.69 0.74 0.75 0.74 0.71 0.72 0.75 0.75 0.71 0.71 0.75 0.78 0.80 0.82 0.79 0.80 0.85 0.80 0.70 0.64 0.62 0.65 0.66 0.63 0.64 0.77 0.86 0.80 0.68 0.62 0.66 0.71 0.78 0.89 0.92 1.02
0.48 0.52 0.56 0.61 0.64 0.66 0.66 0.69 0.75 0.76 0.82 0.82 0.74 0.71 0.74 0.73 0.75 0.87 0.87 0.82 0.86 0.89 0.87 0.72 0.65 0.62 0.62 0.59 0.57 0.57 0.60 0.67 0.76 0.76 0.82 0.81 0.75 0.74 0.75 0.84 1.05 1.18 1.23
0.51 0.51 0.55 0.60 0.63 0.65 0.66 0.69 0.76 0.79 0.85 0.85 0.84 0.79 0.74 0.78 0.85 0.90 0.93 0.98 1.00 0.98 0.87 0.72 0.66 0.60 0.57 0.54 0.53 0.57 0.59 0.65 0.73 0.83 0.87 0.88 0.89 0.87 0.86 0.88 1.07 1.26 1.27
0.54 0.56 0.56 0.59 0.65 0.64 0.64 0.65 0.69 0.73 0.79 0.80 0.82 0.83 0.79 0.80 0.79 0.82 0.91 0.97 0.92 0.88 0.79 0.74 0.68 0.64 0.61 0.58 0.59 0.61 0.62 0.61 0.74 0.90 0.97 0.98 1.00 0.96 0.98 1.03 1.11 1.20 1.17
0.54 0.58 0.60 0.61 0.65 0.65 0.63 0.62 0.63 0.66 0.69 0.69 0.73 0.80 0.80 0.79 0.81 0.84 0.89 0.89 0.83 0.76 0.69 0.70 0.68 0.66 0.67 0.69 0.71 0.74 0.74 0.73 0.79 0.89 0.96 1.00 1.08 1.14 1.13 1.11 1.15 1.19 1.15
0.51 0.54 0.56 0.60 0.64 0.68 0.66 0.64 0.64 0.65 0.66 0.67 0.67 0.74 0.80 0.81 0.82 0.84 0.82 0.73 0.68 0.66 0.64 0.64 0.63 0.66 0.72 0.76 0.79 0.82 0.87 0.91 0.95 1.06 1.06 1.07 1.14 1.25 1.20 1.10 1.09 1.05 1.00
0.48 0.56 0.59 0.59 0.61 0.63 0.66 0.66 0.66 0.67 0.67 0.66 0.64 0.68 0.76 0.82 0.78 0.70 0.67 0.65 0.67 0.67 0.64 0.64 0.63 0.65 0.72 0.78 0.81 0.85 0.92 0.93 0.99 1.08 1.12 1.15 1.19 1.28 1.26 1.10 1.00 0.99 0.91
0.48 0.52 0.58 0.59 0.61 0.63 0.64 0.65 0.66 0.68 0.69 0.68 0.66 0.70 0.84 0.82 0.71 0.62 0.61 0.65 0.70 0.70 0.69 0.69 0.68 0.71 0.76 0.82 0.87 0.88 0.93 0.95 1.00 1.12 1.17 1.16 1.17 1.15 1.04 1.01 0.98 0.98 0.99
0.48 0.50 0.50 0.53 0.58 0.63 0.67 0.66 0.67 0.67 0.66 0.66 0.66 0.69 0.80 0.73 0.69 0.66 0.63 0.62 0.63 0.66 0.68 0.74 0.76 0.75 0.86 1.01 1.12 1.15 1.04 0.98 1.00 1.11 1.14 1.06 1.02 1.01 0.99 1.01 0.99 1.00 1.02
0.48 0.50 0.51 0.54 0.59 0.66 0.68 0.65 0.67 0.68 0.67 0.66 0.66 0.67 0.67 0.67 0.68 0.68 0.67 0.64 0.63 0.63 0.64 0.71 0.78 0.76 0.78 0.96 1.15 1.43 1.50 1.29 1.17 1.26 1.37 1.23 1.08 1.05 1.08 1.08 1.01 1.01 0.97
0.48 0.50 0.53 0.56 0.59 0.63 0.64 0.64 0.65 0.67 0.68 0.67 0.66 0.66 0.65 0.66 0.67 0.67 0.66 0.66 0.66 0.64 0.64 0.70 0.76 0.76 0.78 0.93 1.08 1.21 1.35 1.46 1.64 1.69 1.66 1.65 1.39 1.16 1.12 1.10 1.00 0.95 0.97
0.48 0.51 0.54 0.57 0.60 0.62 0.63 0.63 0.63 0.64 0.65 0.66 0.66 0.66 0.65 0.64 0.64 0.63 0.63 0.63 0.65 0.64 0.61 0.64 0.72 0.77 0.81 0.90 1.03 1.11 1.22 1.37 1.55 1.65 1.58 1.50 1.33 1.15 1.12 1.09 1.00 0.96 0.95
0.47 0.51 0.54 0.56 0.59 0.61 0.63 0.63 0.63 0.64 0.67 0.66 0.66 0.66 0.65 0.64 0.61 0.60 0.59 0.61 0.62 0.61 0.58 0.59 0.63 0.72 0.82 0.91 0.94 1.04 1.16 1.13 1.08 1.09 1.28 1.41 1.31 1.12 1.09 1.14 1.03 1.00 0.97